Florien, LA

5:47 AM CST on December 05, 2016 (GMT -0600)
Fort Polk

Weather History for KAQV - February, 2013

Change the Weather History Date:

Monday, February 4, 2013

  Actual Average (KIER) Record (KIER)
Temperature  
Mean Temperature 52 °F -  
Max Temperature 61 °F 60 °F 84 °F (1957)
Min Temperature 44 °F 36 °F 20 °F (1985)
Degree Days  
Heating Degree Days 12    
Growing Degree Days 2 (Base 50)    
Moisture  
Dew Point 50 °F    
Average Humidity 85    
Maximum Humidity 94    
Minimum Humidity 62    
Precipitation  
Precipitation 0.07 in - - ()
Sea Level Pressure  
Sea Level Pressure 29.97 in    
Wind  
Wind Speed 1 mph (SSE)    
Max Wind Speed 6 mph    
Max Gust Speed -    
Visibility 9 miles    
Events Rain    
Averages and records for this station are not official NWS values.
T = Trace of Precipitation, MM = Missing Value Source: NWS Daily Summary

Daily Weather History Graph

Daily Weather History Graph

Search for Another Location

Airport or City:

Trip Planner

Search our weather history database for the weather conditions in past years. The results will help you decide how hot, cold, wet, or windy it might be!

Date:

Astronomy

Feb. 04, 2013 Rise Set
Actual Time 7:03 AM CST 5:51 PM CST
Civil Twilight 6:38 AM CST 6:16 PM CST
Nautical Twilight 6:09 AM CST 6:45 PM CST
Astronomical Twilight 5:40 AM CST 7:13 PM CST
Moon 1:35 AM CST (2/4) 12:20 PM CST (2/4)
Length of Visible Light 11h 38m
Length of Day
10h 47m
Last Quarter, 37% of the Moon is Illuminated
Feb 4
Last Quarter
Feb 10
New
Feb 17
First Quarter
Feb 25
Full
Mar 4
Last Quarter

Hourly Weather History & Observations

Time (CST) Temp. Dew Point Humidity Pressure Visibility Wind Dir Wind Speed Gust Speed Precip Events Conditions
12:56 AM 48.0 °F 39.9 °F 74% 30.07 in 10.0 mi Calm Calm - N/A   Clear
1:56 AM 45.0 °F 39.0 °F 80% 30.05 in 10.0 mi Calm Calm - N/A   Clear
2:56 AM 44.1 °F 39.9 °F 85% 30.02 in 10.0 mi Calm Calm - N/A   Clear
4:56 AM 45.0 °F 41.0 °F 86% 30.02 in 10.0 mi Calm Calm - N/A   Clear
5:56 AM 46.0 °F 42.1 °F 86% 30.02 in 10.0 mi Calm Calm - N/A   Clear
6:56 AM 46.0 °F 42.1 °F 86% 30.02 in 10.0 mi Calm Calm - N/A   Clear
7:56 AM 48.0 °F 43.0 °F 83% 30.02 in 10.0 mi Calm Calm - N/A   Clear
8:56 AM 54.0 °F 45.0 °F 72% 30.02 in 10.0 mi South 3.5 mph - N/A   Clear
9:56 AM 59.0 °F 46.0 °F 62% 30.03 in 10.0 mi South 5.8 mph - N/A   Overcast
10:56 AM 61.0 °F 48.0 °F 62% 30.02 in 10.0 mi Variable 5.8 mph - 0.00 in Rain Light Rain
11:56 AM 60.1 °F 52.0 °F 75% 30.00 in 10.0 mi Calm Calm - 0.01 in Rain Light Rain
12:56 PM 60.1 °F 54.0 °F 80% 29.96 in 10.0 mi SE 3.5 mph - 0.00 in   Overcast
1:56 PM 61.0 °F 54.0 °F 78% 29.94 in 10.0 mi Calm Calm - 0.00 in   Overcast
2:56 PM 60.1 °F 57.0 °F 90% 29.92 in 6.0 mi Calm Calm - 0.02 in Rain Light Rain
3:56 PM 59.0 °F 55.9 °F 90% 29.91 in 7.0 mi Calm Calm - 0.01 in   Overcast
4:56 PM 57.9 °F 55.9 °F 93% 29.90 in 8.0 mi Calm Calm - 0.00 in   Overcast
5:56 PM 57.9 °F 55.9 °F 93% 29.89 in 8.0 mi Calm Calm - N/A   Mostly Cloudy
6:56 PM 57.0 °F 55.0 °F 93% 29.90 in 10.0 mi SE 3.5 mph - N/A   Partly Cloudy
7:56 PM 57.0 °F 55.0 °F 93% 29.91 in 10.0 mi Calm Calm - N/A   Mostly Cloudy
8:56 PM 55.9 °F 54.0 °F 93% 29.92 in 9.0 mi Calm Calm - N/A   Clear
9:56 PM 55.9 °F 54.0 °F 93% 29.92 in 10.0 mi Variable 3.5 mph - N/A   Mostly Cloudy
10:56 PM 55.0 °F 53.1 °F 93% 29.92 in 10.0 mi SSE 3.5 mph - 0.03 in   Mostly Cloudy
11:07 PM 55.4 °F 53.6 °F 94% 29.92 in 8.0 mi Calm Calm - N/A   Mostly Cloudy
11:33 PM 55.4 °F 53.6 °F 94% 29.92 in 10.0 mi Calm Calm - N/A   Overcast
11:56 PM 55.0 °F 53.1 °F 93% 29.91 in 9.0 mi Calm Calm - N/A   Overcast